Regional Weather Roundup
Issued by NWS San Angelo, TX

Home | Current Version | Previous Version | Text Only | Print | Product List | Glossary On
Versions: 1 2 3 4 5 6 7 8 9 10 11 12 13 14 15 16 17 18 19 20 21 22 23 24 25 26 27 28 29 30 31 32 33 34 35 36 37 38 39 40 41 42 43 44 45 46 47 48 49 50
000
ASUS44 KSJT 130311
RWRSJT
WEST CENTRAL TEXAS REGIONAL WEATHER ROUNDUP
NATIONAL WEATHER SERVICE SAN ANGELO TX
900 PM CST FRI FEB 12 2016

NOTE: "FAIR" INDICATES FEW OR NO CLOUDS BELOW 12,000 FEET WITH NO
SIGNIFICANT WEATHER AND/OR OBSTRUCTIONS TO VISIBILITY.

TXZ049-054-064>066-071>073-076>078-098-099-113-114-127-128-139-140-
154-155-168>170-130400
...LOCATIONS ACROSS WEST CENTRAL TEXAS...

CITY           SKY/WX    TMP DP  RH WIND       PRES   REMARKS
SAN ANGELO     CLEAR     55  31  39 E7        30.28R
ABILENE        CLEAR     54  34  46 E7        30.32R
DYESS AFB      CLEAR     51  34  51 SE3       30.31R
JUNCTION       CLEAR     63  34  33 NE10      30.29R
SWEETWATER     CLEAR     55  32  41 NE7       30.35R
BROWNWOOD      PTCLDY    52  32  46 NE3       30.32R
COLEMAN        CLEAR     52  31  44 E8        30.31R
SONORA         CLEAR     63  34  34 NE8       30.32R
OZONA          FAIR      59  32  36 E12       30.30R
BRADY          NOT AVBL
$$

TEXAS PANHANDLE/OKLAHOMA PANHANDLE

CITY           SKY/WX    TMP DP  RH WIND       PRES   REMARKS
AMARILLO       CLEAR     48  31  51 SE16      30.35R
BORGER         CLEAR     50  31  48 SE12      30.34R
CANADIAN       CLEAR     42  32  68 SE6       30.38S WCI  38
DALHART        CLOUDY    47  27  45 SE9       30.32S
DUMAS          CLEAR     41  25  52 SE8       30.32S WCI  36
GUYMON         NOT AVBL
HEREFORD       NOT AVBL
PAMPA          CLEAR     45  33  61 SE10      30.36R
PERRYTON       CLEAR     40  31  71 E13       30.37R WCI  32
$$

SOUTHERN PANHANDLE/SOUTH PLAINS/ROLLING PLAINS

CITY           SKY/WX    TMP DP  RH WIND       PRES   REMARKS
LUBBOCK        CLEAR     48  29  47 E10       30.32S
SNYDER           N/A     54  31  41 NE8       30.33R
CHILDRESS      CLEAR     49  34  56 E12       30.37R
SEMINOLE       CLEAR     49  26  41 E8        30.31R
$$

PERMIAN BASIN

CITY           SKY/WX    TMP DP  RH WIND       PRES   REMARKS
MIDLAND        CLEAR     58  30  34 E9        30.28R
ODESSA         CLEAR     59  29  31 E13       30.28R
WINK           CLEAR     55  22  27 E9        30.25R
$$

FAR WEST/SOUTHWEST MOUNTAINS/TRANS PECOS

CITY           SKY/WX    TMP DP  RH WIND       PRES   REMARKS
ALPINE         CLEAR     46  21  38 CALM      30.38R
DRYDEN           N/A     62  20  19 VRB5      30.22R
EL PASO        PTCLDY    61  17  18 NW5       30.24S
FORT STOCKTON  CLEAR     57  29  34 SE5       30.26R
GUADALUPE PASS CLEAR     54  19  25 NE23      30.34R
MARFA          CLEAR     42  17  36 N8        30.34R WCI  37
PECOS          CLEAR     56  23  28 CALM      30.25R
$$

DALLAS/FORT WORTH METROPLEX

CITY           SKY/WX    TMP DP  RH WIND       PRES   REMARKS
DFW AIRPORT    CLEAR     57  35  43 N5        30.32R
FTW MEACHAM    CLEAR     59  36  42 NE6       30.32R
DAL-EXECUTIVE  CLEAR     54  36  50 CALM      30.32R
GRAND PRAIRIE  CLEAR     58  36  43 CALM      30.34R
ADDISON        CLEAR     59  36  41 NE6       30.33R
MESQUITE       CLEAR     54  40  59 N5        30.33R
LANCASTER      CLEAR     48  30  49 CALM      30.33S
$$

NORTH CENTRAL TEXAS

CITY           SKY/WX    TMP DP  RH WIND       PRES   REMARKS
SHRMAN/DENISON CLEAR     50  33  52 NE6       30.38R
GAINESVILLE    CLEAR     51  34  52 NE7       30.37S
BRIDGEPORT     CLEAR     53  38  58 CALM      30.35R
DENTON         CLEAR     54  36  50 NE10      30.33R
WAXAHACHIE     CLEAR     53  39  59 CALM      30.34R
GRANBURY       CLEAR     49  37  63 CALM      30.34R
$$

WESTERN NORTH TEXAS

CITY           SKY/WX    TMP DP  RH WIND       PRES   REMARKS
WICHITA FALLS  CLEAR     45  36  70 N8        30.36R
VERNON         CLEAR     49  32  51 NE9       30.38R
BRECKENRIDGE   CLEAR     57  35  43 SE6       30.33R
COMANCHE       CLEAR     55  36  47 E5        30.33R
$$

CENTRAL AND SOUTH CENTRAL TEXAS

CITY           SKY/WX    TMP DP  RH WIND       PRES   REMARKS
AUSTIN/BERGSTM CLEAR     56  44  64 N12       30.27R
WACO           CLEAR     52  35  52 N7        30.30R
HILLSBORO      CLEAR     53  35  50 NE7       30.33R
TEMPLE         CLEAR     56  38  50 N6        30.30R
KILLEEN-GRAY   CLEAR     57  37  46 NE8       30.29R
FORT HOOD      CLEAR     61  36  40 NE8       30.28R
GEORGETOWN     CLEAR     61  39  44 N7        30.29R
LAGO VISTA     FAIR      62  39  43 NE12G17   30.29R
SAN MARCOS     CLEAR     61  43  51 NE10      30.27R
NEW BRAUNFELS  CLEAR     63  43  48 NE10      30.24R
RANDOLPH AFB   CLEAR     62  41  46 NE3       30.25R
SAN ANTONIO    CLEAR     66  42  41 E6        30.25R
STINSON        CLEAR     69  44  40 NE6       30.22R
PLEASANTON     NOT AVBL
LA GRANGE      CLEAR     60  49  68 CALM      30.23R
GIDDINGS       CLEAR     62  44  52 NE5       30.29R
$$

EAST TEXAS

CITY           SKY/WX    TMP DP  RH WIND       PRES   REMARKS
PARIS          CLEAR     52  30  43 N10       30.35R
CLARKSVILLE    NOT AVBL
TYLER          CLEAR     55  36  48 CALM      30.31R
LONGVIEW       CLEAR     50  39  66 CALM      30.30R
PALESTINE      CLEAR     60  38  44 NE6       30.31S
NACOGDOCHES    PTCLDY    59  36  41 NE3       30.30R
$$

TEXAS HILL COUNTRY AND EDWARDS PLATEAU

CITY           SKY/WX    TMP DP  RH WIND       PRES   REMARKS
LLANO          CLEAR     59  36  41 CALM      30.33R
HORSESHOE BAY  FAIR      57  39  50 CALM      30.30R
KERRVILLE      CLEAR     56  40  55 CALM      30.28R
FREDERICKSBRG  CLEAR     60  36  40 CALM      30.29R
ROCKSPRINGS    CLEAR     63  32  31 NE3       30.29R
HONDO          CLEAR     65  47  52 E7        30.25R
UVALDE         CLEAR     63  42  46 E8        30.23R
DEL RIO        CLEAR     69  32  25 E8        30.19R
$$

SOUTHEAST TEXAS

CITY           SKY/WX    TMP DP  RH WIND       PRES   REMARKS
COLLEGE STN    CLEAR     67  48  50 NE9       30.27R
CALDWELL       CLEAR     63  46  55 CALM      30.30R
CROCKETT       PTCLDY    54  41  62 CALM      30.32R
BRENHAM        CLEAR     61  53  73 CALM      30.27R
HUNTSVILLE     CLEAR     62  49  62 E3        30.28R
CONROE         CLEAR     58  53  84 NE3       30.27R
HOUSTON BUSH   CLEAR     61  54  77 NE5       30.26R
HOUSTON HOBBY  CLEAR     66  57  72 S3        30.25R
PERLAND        CLEAR     66  56  70 CALM      30.27R
WHARTON        CLEAR     59  53  81 CALM      30.27R
$$

THE UPPER TEXAS COAST

CITY           SKY/WX    TMP DP  RH WIND       PRES   REMARKS
ORANGE         CLEAR     61  56  82 CALM      30.29R
PORT ARTHUR    CLEAR     58  57  97 CALM      30.26R
GALVESTON      CLEAR     61  60  97 S6        30.27R
ANGLETON       CLEAR     60  58  92 SW5       30.25R
BAY CITY       CLEAR     60  60 100 SE3       30.26R
$$

TEXAS COASTAL BEND, RIO GRANDE PLAINS DEEP SOUTH TEXAS

CITY           SKY/WX    TMP DP  RH WIND       PRES   REMARKS
VICTORIA       CLEAR     57  56  96 SE6       30.25R
BEEVILLE       FAIR      61  58  91 SE6       30.23R
ROCKPORT       CLEAR     63  59  87 SE7       30.24R
PORT ARANSAS   CLEAR     62  61  97 SE8       30.24R
PORT LAVACA    CLEAR     59  57  94 SE5       30.25R
CORPUS CHRISTI PTCLDY    63  56  78 SE12      30.24R
KINGSVILLE NAS PTCLDY    63  60  90 SE8       30.23R
COTULLA        CLEAR     69  42  37 E8        30.21R
LAREDO         CLEAR     69  41  36 E7        30.19R
BROWNSVILLE    PTCLDY    60  59  96 NE3       30.25R
PORT ISABEL    CLEAR     61  59  93 SE3       30.24R
HEBBRONVILLE   NOT AVBL
MCALLEN        PTCLDY    67  58  72 SE10      30.23R
WESLACO        PTCLDY    65  57  75 SE7       30.23R
FALFURRIAS     CLEAR     66  58  76 SE6       30.22R
EDINBURG       CLEAR     68  57  68 S9        30.23R
$$



USA.gov is the U.S. government's official web portal to all federal, state and local government web resources and services.